Vertical_Velocity
2 5 3 3 2 -4 -3 -1 1 1 -0 1 -0 -1 -2 -4 -1 -1 2 -0 1 -1 -2 -0 0 -1 -6 -1 -0 1 -2 -1 -2 -1 -1 -2 1 4 4 1 -1 1 -1
-1 6 1 3 1 1 -1 -2 -3 1 -1 0 -0 -0 -1 1 -3 -3 -0 -0 -1 -0 -0 -1 -1 -2 -3 -2 -1 -2 2 -0 1 -5 3 -3 1 1 3 0 -0 -1 0
4 5 3 1 1 -1 -1 -1 -3 -2 2 -3 -2 0 1 -2 -1 -2 2 -1 -1 1 1 0 -1 1 -2 1 -3 -1 0 -1 0 1 3 -4 -0 1 2 1 1 -0 0
4 1 1 0 0 -1 -1 -3 -3 -2 -3 -1 0 1 0 -1 3 0 -2 -2 -0 -2 1 0 -1 -1 -0 -2 -3 -0 -0 0 -1 -0 2 1 -1 -1 0 0 -0 0 -2
3 -1 1 -0 1 -3 -0 1 -0 -2 0 -2 -3 -2 1 2 2 3 2 -2 -1 0 -0 -0 -1 -2 0 -1 -0 -2 1 1 0 -2 0 1 0 -2 2 2 -1 -1 -0
0 -0 2 -0 1 0 -2 -2 -1 -0 0 -1 -0 -1 1 2 3 0 -1 -5 -2 -0 1 -2 -0 -0 -2 -1 -2 1 -2 4 3 -1 -2 1 -1 2 -3 2 1 0 1
-1 3 0 0 -1 0 -1 -1 -0 -1 0 -2 -2 -1 -1 1 3 6 3 0 -1 0 -1 -0 -0 1 1 -2 -0 0 1 -1 -1 0 -0 4 -2 -3 3 3 -0 1 4
5 -1 -4 -1 -0 -1 3 4 -0 -1 -0 -1 -1 -1 -0 -2 -1 3 1 0 0 0 -3 0 -1 -0 2 1 2 -2 -1 -1 -1 -0 1 0 -1 0 12 3 1 1 4
-3 -1 4 -1 -5 -2 -1 -1 0 -2 -1 -2 -1 -1 -1 -1 -2 -1 -0 3 2 3 13 5 9 -1 -1 -0 2 -1 1 -1 0 -1 2 2 2 14 2 4 0 -0 1
-11 -3 -6 2 -7 -6 -2 -1 -2 -2 -0 -0 -0 -0 1 -0 -1 2 -0 -2 8 0 22 -8 -0 0 -0 1 1 2 2 0 0 -1 -1 -3 -0 -0 -2 3 -0 2 1
-7 -7 -2 -7 -2 0 -4 -3 -3 -4 -3 0 -1 0 0 -1 -1 -2 -2 -2 -2 2 -1 1 -1 -1 0 1 -1 -2 1 -1 1 -1 -1 1 4 3 3 -1 3 8 4
-3 -4 -5 -6 -3 -0 1 -5 -3 1 1 0 -2 -3 0 -1 -2 -3 0 -1 -3 -0 1 2 2 0 -0 1 0 0 8 0 1 -2 2 0 -1 -1 0 -1 2 -1 7
-4 0 0 2 2 -1 3 2 -2 0 -3 -4 2 1 0 0 0 -4 -5 -1 -3 -3 -2 0 0 1 1 0 -1 -0 -1 0 -1 2 1 2 -1 -2 -1 3 8 -3 4
0 -6 10 1 -0 -2 -0 -2 -3 -0 -2 -3 -0 -3 -2 -1 -1 -2 -3 -1 -1 -2 -2 -1 -1 -2 -0 -1 -2 -2 -0 -2 -1 0 0 1 -2 3 3 -1 9 6 3
-12 -4 4 5 -3 -2 -0 -2 -2 -2 -2 -2 -2 1 -0 0 -1 -2 -2 -3 0 1 -2 -5 -3 -2 -3 -4 1 1 -1 -2 -1 -3 0 2 0 2 4 3 7 6 1
2 1 -6 4 -0 -1 -1 -1 -2 -1 -2 -1 0 0 -1 -1 -1 -4 -1 -0 -3 -2 0 3 1 -2 -2 -2 -4 -1 0 0 2 3 2 -0 -3 -2 2 -2 2 2 1
-6 -5 -2 3 1 -0 -1 -0 0 -3 -1 -2 -2 -0 -0 -1 -1 1 1 1 1 1 -2 -2 3 3 4 2 1 0 -1 -2 -2 -1 -0 3 5 -1 -1 -2 1 0 -1
6 -0 -5 1 1 -3 -2 -1 -1 -0 -2 -1 0 -2 0 -1 -0 -1 0 2 2 1 2 4 0 -1 1 4 1 1 1 -0 0 1 -0 1 1 3 3 2 -1 -2 -3
3 6 -13 -1 4 -1 -1 -1 -2 0 0 -1 -2 1 -2 -1 -1 -1 0 -1 1 0 -2 -2 3 9 -2 -4 2 7 2 1 1 -1 -2 -1 3 2 1 2 1 -1 2
8 -2 -9 -3 -1 2 1 -1 -0 -1 -1 1 -0 3 1 1 3 -1 3 0 3 5 7 -3 8 10 2 4 4 -4 3 5 -2 -3 -2 -3 -1 0 1 2 2 5 0
5 -5 0 2 -7 -6 -5 -4 2 -1 2 3 -1 2 0 5 1 -2 3 3 6 -2 -7 5 19 17 15 2 -0 3 -3 -3 0 2 -0 -2 -3 -2 -0 2 1 -1 -1
-1 -6 4 -2 -3 -10 -8 -4 -1 -0 3 3 3 -0 2 1 1 -2 2 -3 -18 9 11 7 -1 6 38 11 11 -1 -0 -1 -2 -0 2 -3 -1 -3 0 3 2 1 2
3 6 0 -4 -2 -5 -4 -7 -6 -3 -2 -1 2 -1 1 3 4 -5 4 1 5 -1 -0 -2 6 3 5 18 6 4 -1 -1 0 -2 -0 1 2 7 5 -2 1 0 2
-2 -0 3 3 -2 -2 -2 -3 -3 -4 -6 -5 -3 0 -3 2 -1 0 0 6 -1 -2 5 -1 -3 7 -6 -10 86 6 16 11 -1 -0 -2 4 -1 -0 -2 -3 -2 0 0
4 -5 -1 3 -2 -0 -4 -3 -5 -2 -3 -3 -4 0 -1 -1 3 -4 -2 -3 2 6 -1 -1 -1 -0 3 -10 8 -6 -0 -0 4 -3 1 2 0 0 -2 -2 -3 -3 1
-5 1 -4 -2 -1 2 -2 -4 -2 -1 -3 -1 -2 -2 -2 2 -4 -4 -6 -4 -5 -1 3 2 2 3 4 -4 -5 -3 1 -2 0 -0 6 3 -3 -1 0 -1 -2 -3 -0
Height
5911 5911 5910 5908 5905 5902 5899 5898 5901 5903 5903 5904 5905 5906 5907 5908 5910 5911 5912 5912 5913 5913 5914 5914 5915 5916 5917 5918 5918 5917 5917 5919 5917 5918 5917 5917 5917 5918 5918 5918 5919 5919 5920
5910 5911 5909 5908 5906 5904 5902 5900 5900 5902 5903 5904 5904 5905 5905 5906 5907 5908 5910 5910 5910 5911 5912 5912 5913 5913 5914 5915 5915 5915 5916 5917 5917 5916 5914 5916 5917 5916 5917 5917 5918 5919 5920
5911 5911 5909 5908 5907 5904 5902 5902 5901 5900 5902 5901 5902 5903 5904 5904 5904 5905 5907 5908 5908 5909 5910 5909 5909 5910 5910 5912 5912 5913 5914 5914 5915 5915 5915 5915 5915 5915 5915 5916 5917 5918 5920
5913 5911 5909 5909 5907 5904 5903 5901 5900 5899 5898 5898 5899 5900 5901 5902 5903 5903 5903 5904 5905 5905 5906 5907 5907 5908 5907 5907 5908 5910 5911 5912 5913 5913 5914 5914 5914 5914 5914 5915 5915 5916 5918
5912 5911 5911 5910 5908 5905 5904 5902 5901 5899 5898 5897 5897 5897 5898 5899 5899 5900 5900 5901 5902 5902 5902 5902 5903 5903 5903 5904 5905 5906 5907 5909 5910 5910 5911 5910 5910 5911 5912 5912 5913 5915 5917
5910 5911 5911 5910 5908 5906 5903 5902 5901 5900 5898 5897 5896 5896 5896 5897 5897 5897 5898 5899 5899 5899 5899 5898 5899 5899 5899 5899 5900 5902 5903 5904 5905 5906 5907 5907 5907 5906 5909 5910 5911 5913 5914
5908 5909 5909 5908 5907 5905 5904 5902 5901 5899 5898 5897 5895 5895 5894 5894 5894 5894 5894 5895 5896 5896 5896 5895 5895 5896 5896 5895 5895 5895 5897 5899 5900 5901 5902 5903 5905 5905 5906 5908 5909 5911 5911
5906 5906 5906 5906 5905 5904 5903 5901 5900 5898 5897 5896 5895 5893 5892 5891 5891 5892 5892 5893 5892 5892 5892 5892 5892 5893 5892 5892 5892 5892 5893 5893 5893 5896 5898 5900 5901 5902 5901 5904 5906 5907 5908
5899 5902 5904 5903 5900 5899 5900 5901 5900 5898 5896 5893 5892 5890 5889 5888 5888 5888 5889 5889 5889 5889 5889 5888 5889 5889 5890 5890 5890 5890 5889 5889 5891 5892 5893 5895 5896 5892 5897 5901 5902 5903 5903
5894 5893 5897 5901 5898 5898 5897 5896 5896 5895 5893 5890 5889 5887 5886 5885 5885 5885 5885 5885 5885 5885 5886 5885 5886 5886 5887 5886 5886 5886 5887 5888 5888 5888 5889 5890 5891 5892 5893 5895 5896 5898 5900
5893 5893 5896 5895 5897 5898 5896 5894 5894 5893 5890 5888 5885 5884 5882 5882 5883 5882 5882 5882 5882 5882 5883 5883 5884 5884 5884 5884 5884 5883 5883 5885 5884 5885 5886 5887 5887 5888 5887 5888 5889 5890 5895
5894 5894 5893 5895 5897 5897 5896 5894 5893 5891 5889 5885 5883 5881 5880 5880 5880 5880 5879 5879 5880 5880 5881 5882 5882 5882 5882 5882 5881 5881 5880 5879 5880 5881 5882 5882 5883 5883 5883 5882 5882 5886 5887
5893 5894 5896 5897 5897 5895 5895 5894 5894 5890 5887 5885 5884 5882 5879 5878 5878 5878 5877 5877 5877 5877 5877 5878 5878 5878 5878 5878 5878 5877 5876 5876 5876 5876 5877 5876 5878 5878 5879 5878 5878 5880 5884
5889 5890 5896 5894 5893 5892 5892 5891 5892 5890 5888 5885 5883 5881 5879 5877 5876 5876 5876 5875 5875 5875 5874 5874 5875 5875 5875 5875 5875 5874 5873 5873 5873 5873 5872 5871 5871 5872 5874 5874 5874 5875 5878
5881 5883 5889 5891 5890 5890 5890 5889 5889 5887 5887 5884 5882 5880 5879 5877 5875 5875 5874 5873 5873 5873 5873 5872 5872 5872 5872 5871 5871 5871 5871 5871 5872 5871 5870 5869 5868 5868 5869 5869 5868 5870 5874
5878 5879 5881 5887 5887 5887 5887 5887 5886 5885 5884 5883 5881 5879 5878 5876 5875 5874 5873 5872 5872 5871 5870 5870 5870 5869 5869 5868 5868 5868 5867 5867 5867 5867 5867 5867 5866 5865 5864 5864 5864 5866 5868
5868 5871 5875 5880 5883 5883 5883 5883 5882 5882 5881 5880 5879 5877 5876 5875 5874 5873 5871 5869 5868 5867 5867 5866 5865 5865 5865 5865 5865 5864 5864 5864 5862 5862 5861 5860 5860 5861 5861 5860 5859 5860 5861
5869 5867 5870 5874 5877 5878 5878 5879 5879 5878 5877 5876 5875 5874 5873 5872 5870 5868 5866 5865 5864 5862 5861 5860 5861 5860 5860 5860 5860 5860 5859 5859 5859 5858 5856 5856 5856 5856 5856 5856 5855 5852 5854
5862 5861 5861 5866 5871 5872 5872 5874 5874 5874 5873 5872 5870 5869 5867 5867 5865 5864 5861 5860 5860 5858 5857 5856 5854 5854 5853 5853 5854 5855 5855 5854 5854 5852 5851 5850 5852 5852 5851 5852 5851 5851 5850
5853 5854 5854 5857 5863 5865 5866 5867 5869 5868 5867 5866 5864 5863 5863 5860 5859 5857 5856 5855 5852 5849 5847 5845 5845 5846 5846 5844 5844 5845 5847 5848 5848 5848 5845 5844 5845 5846 5847 5847 5846 5848 5848
5845 5847 5850 5851 5853 5856 5858 5859 5860 5862 5862 5861 5858 5856 5856 5853 5852 5851 5848 5844 5838 5833 5829 5828 5827 5829 5833 5834 5834 5835 5837 5839 5839 5839 5839 5838 5836 5837 5840 5840 5840 5840 5842
5840 5843 5844 5845 5845 5847 5849 5851 5852 5852 5854 5853 5852 5850 5847 5846 5844 5843 5838 5829 5825 5824 5823 5821 5823 5824 5820 5820 5824 5825 5826 5829 5831 5831 5831 5830 5830 5828 5830 5832 5833 5833 5834
5833 5835 5837 5837 5839 5841 5842 5842 5843 5844 5843 5842 5842 5841 5839 5838 5836 5835 5832 5829 5825 5821 5821 5815 5813 5812 5815 5811 5809 5813 5816 5818 5820 5823 5824 5824 5822 5820 5820 5822 5824 5825 5825
5826 5828 5830 5831 5832 5834 5835 5835 5835 5835 5833 5832 5832 5830 5831 5830 5829 5827 5824 5821 5817 5813 5811 5807 5810 5806 5805 5799 5794 5804 5805 5807 5808 5810 5814 5817 5816 5815 5814 5812 5812 5814 5817
5816 5817 5820 5823 5823 5825 5825 5827 5827 5826 5825 5823 5822 5821 5820 5821 5820 5820 5817 5813 5808 5803 5801 5798 5798 5798 5795 5792 5794 5795 5794 5795 5797 5797 5801 5804 5805 5806 5804 5804 5802 5801 5804
5807 5809 5811 5813 5815 5817 5817 5817 5818 5817 5816 5815 5813 5812 5810 5810 5810 5809 5809 5806 5801 5794 5791 5788 5787 5786 5787 5785 5785 5784 5784 5784 5783 5786 5789 5791 5793 5794 5795 5793 5791 5791 5793